Weather Roundup
Issued by NWS Springfield, MO

Home | Current Version | Previous Version | Text Only | Print | Product List | Glossary On
Versions: 1 2 3 4 5 6 7 8 9 10 11 12 13 14 15 16 17 18 19 20 21 22 23 24 25 26 27 28 29 30 31 32 33 34 35 36 37 38 39 40 41 42 43 44 45 46 47 48 49 50
000
NZUS99 KSGF 201007
HRRSGF

HOURLY WEATHER
NATIONAL WEATHER SERVICE SPRINGFIELD MO
500 AM CDT SUN APR 20 2014

......SGF CWA......

CITY           SKY/WX    TMP DP  RH WIND       PRES   REMARKS
SPRINGFIELD    MOCLDY    56  46  69 SE10      30.16R
JOPLIN         CLOUDY    58  48  69 S8        30.14S
WEST PLAINS    CLOUDY    49  42  77 NW3       30.20R
ROLLA          PTCLDY    58  42  55 S13       30.17S
OSAGE BEACH    MOCLDY    57  39  51 SE6       30.17F
BRANSON        CLOUDY    59  46  63 S5        30.18S

......SURROUNDING SGF CWA......

CITY           SKY/WX    TMP DP  RH WIND       PRES   REMARKS
CHANUTE        MOCLDY    53  47  79 S7        30.12R
PARSONS        CLOUDY    58  47  66 CALM      30.13R
COFFEYVILLE    MOCLDY    58  49  72 SE5       30.12R
EMPORIA        MOCLDY    56  47  71 S10       30.08S
GROVE OK       CLOUDY    61  52  72 CALM      30.15S
ROGERS AR      CLOUDY    59  49  69 SE6       30.18R
SILOAM SPRINGS MOCLDY    57  45  62 E6        30.17S
HARRISON AR    MOCLDY    57  47  69 CALM      30.18S
NEAR YELLVILLE MOCLDY    52  41  66 CALM      30.17F

......KANSAS AND MISSOURI......

CITY           SKY/WX    TMP DP  RH WIND       PRES   REMARKS
KANSAS CTY INT CLOUDY    57  46  66 S10       30.08S
DOWNTOWN KC    CLOUDY    62  46  55 S8        30.08F
COLUMBIA       PTCLDY    56  41  57 SE10      30.15F
SEDALIA        MOCLDY    59  45  59 S9        30.14S
ST JOSEPH      PTCLDY    54  46  74 S7        30.07S
ST LOUIS       MOCLDY    54  42  64 CALM      30.20S
SPIRIT OF STL  PTCLDY    46  41  82 CALM      30.19S
KIRKSVILLE     MOCLDY    50  42  74 S9        30.13F
WICHITA        MOCLDY    60  50  69 S10       30.06F
TOPEKA         MOCLDY    62  47  57 S3        30.08S
OLATHE         CLOUDY    53  45  74 S6        30.09F

......TENNESSEE......

CITY           SKY/WX    TMP DP  RH WIND       PRES   REMARKS
MEMPHIS        PTCLDY    52  46  80 CALM      30.16R
NASHVILLE      PTCLDY    47  43  86 S3        30.19S

......ARKANSAS.......

CITY           SKY/WX    TMP DP  RH WIND       PRES   REMARKS
FAYETTEVILLE   MOCLDY    49  48  97 CALM      30.18R
FT SMITH       PTCLDY    57  53  86 NE5       30.14F
LITTLE ROCK    PTCLDY    54  51  90 CALM      30.16F

......OKLAHOMA.......

CITY           SKY/WX    TMP DP  RH WIND       PRES   REMARKS
TULSA          MOCLDY    61  51  70 SE8       30.09F
PONCA CITY     MOCLDY    63  49  60 S10       30.07F
MCALESTER      PTCLDY    58  49  72 E3        30.12F
OKLAHOMA CITY  CLOUDY    56  50  80 S5        30.07F

......IOWA............

CITY           SKY/WX    TMP DP  RH WIND       PRES   REMARKS
DES MOINES     CLOUDY    60  44  55 S9        30.05F
QUAD CITIES    MOCLDY    52  37  56 S8        30.15R

......ILLINOIS........

CITY           SKY/WX    TMP DP  RH WIND       PRES   REMARKS
QUINCY         MOCLDY    59  39  47 S7        30.16S
CHICAGO        PTCLDY    45  28  51 S7        30.21S




USA.gov is the U.S. government's official web portal to all federal, state and local government web resources and services.